OpenBCM V1.08-5-g2f4a (Linux)

Packet Radio Mailbox

IZ3LSV

[San Dona' di P. JN]

 Login: GUEST





  
KQ6UP  > KEPS     12.04.25 02:53l 358 Lines 17045 Bytes #23 (0) @ AMSAT
BID : 9745_W6TJ
Read: GUEST
Subj: 2Line Orbital Elements 25101.AMSAT
Path: IZ3LSV<I0OJJ<N6RME<KE6JJJ<KQ6UP<W7DTH<W6TJ
Sent: 250411/2359Z @:W6TJ.#SCA.CA.USA.NOAM #:9745 [Grand Terrace, CA] $:9745_W6

>From kq6up%w6tj.#sca.ca.usa.noam@kq6up.ampr.org Fri Apr 11 17:35:51 2025
Received: from kq6up.ampr.org by kq6up.ampr.org (JNOS2.0o.2) with SMTP
	id AA62645 ; Fri, 11 Apr 2025 17:35:51 PDT
Message-Id: <9745_W6TJ@w7dth.bbs>
>From: kq6up@w6tj.#sca.ca.usa.noam
X-JNOS-User-Port: Circuit  (DOSFBB:W7DTH-2 W7DTH-2)  -> Sending message

From: KQ6UP@W6TJ.#SCA.CA.USA.NOAM
To  : KEPS@AMSAT



AMSAT Orbital Elements for Amateur Satellites in TLE Format
>From Orbital Analysis Office
New England Sci-Tech STEM Education Center
Natick, MA April 11, 2025
To all radio amateurs


These element sets describe the orbits of various satellites 
in use by the amateur radio community. For details see:
www.amsat.org/keplerian-elements-formats/

A daily update of element sets is available at:
www.amsat.org/tle/daily-bulletin.txt
or without bulletin text:
www.amsat.org/tle/dailytle.txt


AO-07
1 07530U 74089B   25100.56964475 -.00000023  00000-0  14958-3 0  9993
2 07530 101.9951 104.1916 0011904 235.6854 239.7038 12.53688177306305
UO-11
1 14781U 84021B   25100.53511656  .00003747  00000-0  40255-3 0  9996
2 14781  97.7486  68.1220 0008136 162.6235 197.5262 14.89129164192702
AO-27
1 22825U 93061C   25100.56631140  .00000328  00000-0  14253-3 0  9993
2 22825  98.7424 161.8071 0007293 291.1576  68.8826 14.30771783645139
FO-29
1 24278U 96046B   25100.86507534  .00000039  00000-0  72953-4 0  9996
2 24278  98.5822   2.6034 0350621 137.1826 225.7197 13.53243231414941
NOAA-15
1 25338U 98030A   25100.85975542  .00000410  00000-0  18617-3 0  9995
2 25338  98.5412 127.4131 0010592 167.8866 192.2571 14.26938096399882
GO-32
1 25397U 98043D   25100.48841690  .00000272  00000-0  13792-3 0  9994
2 25397  98.9662  78.3685 0002026  52.4862 307.6500 14.24292673389733
ISS
1 25544U 98067A   25100.81004134  .00014363  00000-0  26434-3 0  9998
2 25544  51.6356 280.7424 0005021  29.0491 331.0776 15.49429297504714
NO-44
1 26931U 01043C   25100.56874622  .00000542  00000-0  23416-3 0  9997
2 26931  67.0497 282.9955 0005564 269.7830  90.2634 14.31691015228514
SO-50
1 27607U 02058C   25100.20655957  .00004095  00000-0  52962-3 0  9999
2 27607  64.5563  26.8638 0049191 348.4784  11.5191 14.81383494200283
CO-55
1 27844U 03031E   25100.60234581  .00000882  00000-0  40340-3 0  9991
2 27844  98.6786 109.6456 0009746   9.4534 350.6826 14.23930550130133
CO-57
1 27848U 03031J   25100.45260342  .00000727  00000-0  34043-3 0  9993
2 27848  98.6813 109.5485 0009997  26.3269 333.8415 14.23274141129817
RS-22
1 27939U 03042A   25100.87654711  .00003250  00000-0  52402-3 0  9992
2 27939  98.3222 268.9089 0011358 193.5583 300.8007 14.72131254152042
NOAA-18
1 28654U 05018A   25100.81194525  .00000417  00000-0  24431-3 0  9991
2 28654  98.8432 180.9584 0013114 300.7310  59.2571 14.13571404 25309
CO-58
1 28895U 05043F   25100.38270004  .00004592  00000-0  76034-3 0  9999
2 28895  98.2395 244.0229 0015665 135.8581 224.3877 14.70703759 38093
CO-65
1 32785U 08021C   25100.79700607  .00012797  00000-0  93916-3 0  9997
2 32785  97.7799  71.5678 0011503  59.2759 300.9598 15.03562594920168
AAUSAT2
1 32788U 08021F   25100.51904702  .00288097  00000-0  25461-2 0  9999
2 32788  97.6016  95.7684 0008237 133.6976 226.4968 15.67735582923924
CO-66
1 32791U 08021J   25100.44995765  .00024551  00000-0  12517-2 0  9995
2 32791  97.7246  79.2420 0005537  47.2165 312.9533 15.16736951921370
RS-30
1 32953U 08025A   25100.84739711  .00000044  00000-0  24240-3 0  9998
2 32953  82.4984 264.3290 0019749 173.6930 186.4402 12.43162109766119
NOAA-19
1 33591U 09005A   25100.80864924  .00000393  00000-0  23359-3 0  9994
2 33591  99.0020 165.1662 0014139 168.7018 191.4474 14.13336421833663
SRMSAT
1 37841U 11058D   25100.49727017  .00000619  00000-0  19260-3 0  9990
2 37841  19.9705 158.1271 0011876 123.3430 264.8561 14.11407816696613
ZACUBE-1
1 39417U 13066B   25100.80277808  .00009207  00000-0  81252-3 0  9997
2 39417  97.7738  58.1840 0043040 251.1386 108.5165 14.95902455615978
Delfi-N3xt
1 39428U 13066N   25100.70796179  .00013414  00000-0  13943-2 0  9991
2 39428  97.8363  19.0745 0085728 196.3989 163.4451 14.87290138610357
GOMX-1
1 39430U 13066Q   25100.82529494  .00004365  00000-0  68337-3 0  9994
2 39430  97.6919 323.1413 0133819  24.2943 336.4494 14.67332725606643
LO-74
1 39440U 13066AA  25100.35875757  .00010693  00000-0  10931-2 0  9996
2 39440  97.8447  45.3781 0063752  20.4789 339.8962 14.89224855612470
AO-73
1 39444U 13066AE  25100.44917736  .00015188  00000-0  11681-2 0  9991
2 39444  97.7676  62.2145 0039890 228.3117 131.4691 15.01158253614569
DTUSAT-2
1 40030U 14033W   25100.36472467  .00014770  00000-0  98549-3 0  9992
2 40030  98.0507  69.3369 0006887 262.4220  97.6224 15.07133935587323
EO-80
1 40032U 14033Y   25100.45435857  .00015383  00000-0  10239-2 0  9996
2 40032  98.0391  69.1684 0007981 190.1346 169.9720 15.07206560587314
LILACSAT-2
1 40908U 15049K   25100.88870954  .00019981  00000-0  54971-3 0  9994
2 40908  97.5112 119.8473 0010038  27.6428 332.5348 15.37169011529055
IO-86
1 40931U 15052B   25038.81889873  .00001817  00000-0  15548-3 0  9993
2 40931   6.0001 108.1159 0012838 187.7041 172.2889 14.78568669506492
Horyu-4
1 41340U 16012D   25100.47746089  .00037678  00000-0  11175-2 0  9993
2 41340  30.9963 175.2323 0008754 152.1613 207.9501 15.33574896503542
Lapan A3
1 41603U 16040E   25100.83922554  .00006403  00000-0  22734-3 0  9995
2 41603  97.1388 107.8073 0013002 118.1387 242.1170 15.29288008488654
CAS-2T
1 41847U 16066G   25100.78839876  .00002219  00000-0  32450-3 0  9998
2 41847  98.4227 175.7655 0346689 359.5868   0.4987 14.43308982442396
CAS-4B
1 42759U 17034B   25100.83930165  .00071215  00000-0  10173-2 0  9995
2 42759  43.0097 315.8964 0019367 237.2500 122.6495 15.55129399433270
CAS-4A
1 42761U 17034D   25100.84763536  .00075224  00000-0  10418-2 0  9991
2 42761  43.0133 313.5231 0020899 241.5515 118.3241 15.55908151433296
TechnoSat
1 42829U 17042E   25100.46664174  .00007720  00000-0  60443-3 0  9991
2 42829  97.3916 272.0531 0014913 120.1013 240.1693 15.01193745421703
AO-91
1 43017U 17073E   25100.59013174  .00019184  00000-0  99978-3 0  9999
2 43017  97.5346 332.8946 0176503  11.2769 349.2332 15.03464976400199
S-Net D
1 43186U 18014G   25100.71850460  .00009677  00000-0  58190-3 0  9990
2 43186  97.5685   4.2517 0011313  74.3280 285.9198 15.11011037393339
S-Net B
1 43187U 18014H   25100.72315742  .00009915  00000-0  59627-3 0  9992
2 43187  97.5693   4.2251 0011970  70.1850 290.0669 15.10993319393331
S-Net A
1 43188U 18014J   25100.45420672  .00010561  00000-0  63456-3 0  9996
2 43188  97.5698   4.1012 0011890  71.5705 288.6816 15.11010713393297
S-Net C
1 43189U 18014K   25100.72543359  .00009983  00000-0  60018-3 0  9992
2 43189  97.5714   4.3736 0013274  63.9120 296.3475 15.10989959391882
Ten-Koh
1 43677U 18084G   25100.84211497  .00005395  00000-0  43646-3 0  9990
2 43677  98.0937 270.7200 0009992 116.7810 243.4436 15.00176314351289
PO-101
1 43678U 18084H   25100.87931089  .00005337  00000-0  45764-3 0  9999
2 43678  98.0984 274.7490 0009434 125.1082 235.1025 14.97937138351447
QO-100
1 43700U 18090A   25100.54114936  .00000139  00000-0  00000-0 0  9996
2 43700   0.0066 110.7794 0001808 306.4576   2.3769  1.00272839 23335
MinXSS-2
1 43758U 18099A   25100.67264642  .00029833  00000-0  12524-2 0  9990
2 43758  97.5076 166.5942 0011580  13.4193 346.7349 15.23352727347841
AO-95
1 43770U 18099N   25100.87291350  .00017019  00000-0  89125-3 0  9997
2 43770  97.4984 159.6544 0012071  66.4286 293.8213 15.15817254347507
RANGE-A
1 43773U 18099R   25100.84557627  .00008606  00000-0  55682-3 0  9992
2 43773  97.4552 150.9850 0012376  45.0362 315.1868 15.08351790347213
MOVE-II
1 43780U 18099Y   25100.16551498  .00159695  00000-0  23642-2 0  9990
2 43780  97.4715 172.2073 0001096 278.7393  81.3737 15.54716008348353
SNUSat 2
1 43782U 18099AA  25100.40027202  .00014956  00000-0  83894-3 0  9996
2 43782  97.4670 156.4185 0011948  10.5249 349.6230 15.13400643347393
SnugLite
1 43784U 18099AC  25100.65160202  .00018071  00000-0  93968-3 0  9998
2 43784  97.4480 156.1143 0003460  32.3174 327.8270 15.16111140347558
ITASat 1
1 43786U 18099AE  25100.40859130  .00013224  00000-0  77257-3 0  9996
2 43786  97.4640 156.1056 0015874  59.6196 300.6601 15.11919165347363
EAGLET 1
1 43790U 18099AJ  25100.86138688  .00007847  00000-0  50765-3 0  9998
2 43790  97.4829 156.6887 0012993  41.7792 318.4426 15.08381068347067
ESEO
1 43792U 18099AL  25100.86292657  .00003918  00000-0  30038-3 0  9993
2 43792  97.4568 150.7365 0012133  19.9050 340.2646 15.02322507346855
CSIM
1 43793U 18099AM  25100.71785386  .00133734  00000-0  19487-2 0  9998
2 43793  97.4897 174.9346 0004240 302.1218  57.9624 15.55237653348283
JO-97
1 43803U 18099AX  25100.41678769  .00021482  00000-0  10255-2 0  9993
2 43803  97.4732 160.0819 0006983   7.9082 352.2261 15.19053624347639
Suomi 100
1 43804U 18099AY  25100.73520184  .00018738  00000-0  95023-3 0  9993
2 43804  97.4795 159.8513 0012072   3.4944 356.6371 15.16928513347624
ISAT
1 43879U 18111D   25100.72969516  .00033195  00000-0  12508-2 0  9995
2 43879  97.5998  13.9115 0011673  58.4200 301.8176 15.26948134342533
UWE-4
1 43880U 18111E   25100.49835700  .00030185  00000-0  12575-2 0  9998
2 43880  97.5940  12.5470 0014917  66.0078 294.2719 15.23569308344475
Sparrow
1 43881U 18111F   25100.75664794  .00034360  00000-0  12538-2 0  9999
2 43881  97.6133  16.5971 0010289  89.5023 270.7395 15.28014996342648
Prox-1
1 44339U 19036A   25100.24386567  .00019782  00000-0  26213-2 0  9994
2 44339  23.9960  97.6890 0007495 108.6207 251.5104 14.78318152309079
